AFR05YT EGPH-LFPO

Flight info

Callsign AFR05YT
Flight time 1h 32m
Altitude 35000
Route GOSAM P600 FENIK L612 NAVSO DCT AKOMU DCT VAMEB UL612 HON UN859 DVL/N0394F190 A34 BOBSA
Aircraft A320/M-SDE3FGHIRWY/LB1

Departure

Time 2026-05-06 07:41
Airport Edinburgh Airport (EGPH)

Arrival

Time 2026-05-06 09:13
Airport Paris-Orly Airport (LFPO)
Time Latitude Longitude Altitude Speed Heading
2026-05-06 07:11 55.94904 -3.36492 107 ft 0 kts 147°
2026-05-06 07:32 55.94923 -3.36514 106 ft 4 kts 151°
2026-05-06 07:32 55.94947 -3.36531 106 ft 4 kts 175°
2026-05-06 07:33 55.94970 -3.36524 106 ft 4 kts 227°
2026-05-06 07:33 55.94974 -3.36516 103 ft 0 kts 238°
2026-05-06 07:35 55.94974 -3.36517 103 ft 0 kts 238°
2026-05-06 07:35 55.94973 -3.36520 105 ft 0 kts 238°
2026-05-06 07:35 55.94966 -3.36538 106 ft 2 kts 238°
2026-05-06 07:36 55.94953 -3.36576 106 ft 6 kts 238°
2026-05-06 07:36 55.94933 -3.36634 107 ft 5 kts 238°
2026-05-06 07:36 55.94918 -3.36680 106 ft 4 kts 238°
2026-05-06 07:36 55.94902 -3.36726 105 ft 5 kts 238°
2026-05-06 07:37 55.94898 -3.36803 104 ft 10 kts 294°
2026-05-06 07:37 55.94965 -3.36775 107 ft 15 kts 52°
2026-05-06 07:37 55.95028 -3.36595 107 ft 18 kts 59°
2026-05-06 07:37 55.95096 -3.36390 106 ft 21 kts 59°
2026-05-06 07:38 55.95178 -3.36148 102 ft 24 kts 59°
2026-05-06 07:38 55.95271 -3.35877 102 ft 27 kts 58°
2026-05-06 07:38 55.95366 -3.35595 103 ft 27 kts 58°
2026-05-06 07:38 55.95411 -3.35465 104 ft 7 kts 59°
2026-05-06 07:39 55.95444 -3.35405 104 ft 7 kts 13°
2026-05-06 07:39 55.95513 -3.35453 101 ft 16 kts 327°
2026-05-06 07:39 55.95573 -3.35534 102 ft 6 kts 289°
2026-05-06 07:39 55.95564 -3.35590 102 ft 4 kts 230°
2026-05-06 07:40 55.95554 -3.35614 102 ft 0 kts 237°
2026-05-06 07:40 55.95514 -3.35726 103 ft 42 kts 237°
2026-05-06 07:40 55.95221 -3.36591 106 ft 116 kts 238°
2026-05-06 07:40 55.94710 -3.38097 252 ft 156 kts 239°
2026-05-06 07:41 55.94138 -3.39809 852 ft 166 kts 239°
2026-05-06 07:41 55.93539 -3.41638 1546 ft 175 kts 238°
2026-05-06 07:41 55.92896 -3.43592 2077 ft 192 kts 237°
2026-05-06 07:41 55.92165 -3.45754 2488 ft 217 kts 237°
2026-05-06 07:42 55.91340 -3.48177 3035 ft 239 kts 237°
2026-05-06 07:42 55.90493 -3.50859 3697 ft 257 kts 246°
2026-05-06 07:42 55.90053 -3.54024 4544 ft 268 kts 259°
2026-05-06 07:42 55.89840 -3.56195 5249 ft 268 kts 261°
2026-05-06 07:43 55.89434 -3.60556 5878 ft 268 kts 261°
2026-05-06 07:43 55.89130 -3.63814 5995 ft 266 kts 261°
2026-05-06 07:43 55.88820 -3.67068 6009 ft 266 kts 261°
2026-05-06 07:43 55.88501 -3.70314 6009 ft 265 kts 261°
2026-05-06 07:44 55.88179 -3.73543 6013 ft 265 kts 261°
2026-05-06 07:44 55.87959 -3.75731 6013 ft 265 kts 261°
2026-05-06 07:44 55.87634 -3.78957 6013 ft 265 kts 261°
2026-05-06 07:44 55.87312 -3.82187 6012 ft 265 kts 261°
2026-05-06 07:45 55.86992 -3.85415 6006 ft 265 kts 261°
2026-05-06 07:45 55.86671 -3.88649 6010 ft 265 kts 261°
2026-05-06 07:45 55.86349 -3.91883 6010 ft 266 kts 260°
2026-05-06 07:45 55.86030 -3.95071 6011 ft 265 kts 260°
2026-05-06 07:46 55.85698 -3.98357 6010 ft 266 kts 260°
2026-05-06 07:46 55.85374 -4.01547 6010 ft 266 kts 260°
2026-05-06 07:46 55.85046 -4.04790 6009 ft 266 kts 260°
2026-05-06 07:46 55.84719 -4.08026 6010 ft 266 kts 259°
2026-05-06 07:47 55.84186 -4.11178 6011 ft 266 kts 246°
2026-05-06 07:47 55.83239 -4.13989 6011 ft 266 kts 232°
2026-05-06 07:47 55.81929 -4.16313 6011 ft 267 kts 217°
2026-05-06 07:47 55.80403 -4.18188 6010 ft 267 kts 214°
2026-05-06 07:48 55.78870 -4.20051 6010 ft 267 kts 214°
2026-05-06 07:48 55.77321 -4.21955 6425 ft 275 kts 216°
2026-05-06 07:48 55.75758 -4.23894 7510 ft 274 kts 216°
2026-05-06 07:48 55.74177 -4.25809 8485 ft 278 kts 211°
2026-05-06 07:49 55.72361 -4.27072 9422 ft 285 kts 193°
2026-05-06 07:49 55.70362 -4.27238 10290 ft 293 kts 174°
2026-05-06 07:49 55.68371 -4.26195 10864 ft 311 kts 154°
2026-05-06 07:49 55.66428 -4.24292 11153 ft 335 kts 152°
2026-05-06 07:50 55.64325 -4.22182 11407 ft 358 kts 152°
2026-05-06 07:50 55.62120 -4.19979 11980 ft 368 kts 152°
2026-05-06 07:50 55.59869 -4.17749 12721 ft 373 kts 152°
2026-05-06 07:50 55.57583 -4.15504 13470 ft 378 kts 153°
2026-05-06 07:51 55.55268 -4.13247 14183 ft 382 kts 153°
2026-05-06 07:51 55.52926 -4.10972 14854 ft 386 kts 153°
2026-05-06 07:51 55.50565 -4.08677 15520 ft 390 kts 153°
2026-05-06 07:51 55.48176 -4.06353 16190 ft 394 kts 153°
2026-05-06 07:52 55.45767 -4.04012 16848 ft 397 kts 153°
2026-05-06 07:52 55.43329 -4.01649 17482 ft 402 kts 154°
2026-05-06 07:52 55.40866 -3.99265 18133 ft 406 kts 154°
2026-05-06 07:52 55.38379 -3.96861 18727 ft 410 kts 154°
2026-05-06 07:53 55.35866 -3.94436 19291 ft 414 kts 154°
2026-05-06 07:53 55.33330 -3.91990 19849 ft 417 kts 154°
2026-05-06 07:53 55.30776 -3.89526 20400 ft 420 kts 154°
2026-05-06 07:53 55.28207 -3.87047 20941 ft 423 kts 154°
2026-05-06 07:54 55.25618 -3.84553 21461 ft 426 kts 154°
2026-05-06 07:54 55.23004 -3.82048 21979 ft 429 kts 154°
2026-05-06 07:54 55.20361 -3.79578 22478 ft 431 kts 155°
2026-05-06 07:54 55.17677 -3.77210 22967 ft 433 kts 156°
2026-05-06 07:55 55.14970 -3.74908 23449 ft 436 kts 157°
2026-05-06 07:55 55.12204 -3.72593 23877 ft 438 kts 157°
2026-05-06 07:55 55.09467 -3.70306 24250 ft 441 kts 157°
2026-05-06 07:55 55.06697 -3.67979 24627 ft 443 kts 157°
2026-05-06 07:56 55.03914 -3.65619 25003 ft 446 kts 156°
2026-05-06 07:56 55.01102 -3.63217 25364 ft 448 kts 156°
2026-05-06 07:56 54.98301 -3.60818 25714 ft 450 kts 156°
2026-05-06 07:56 54.95513 -3.58434 26050 ft 452 kts 156°
2026-05-06 07:57 54.92650 -3.55992 26390 ft 454 kts 157°
2026-05-06 07:57 54.89812 -3.53579 26717 ft 456 kts 157°
2026-05-06 07:57 54.86953 -3.51156 27032 ft 458 kts 157°
2026-05-06 07:57 54.84082 -3.48731 27328 ft 460 kts 157°
2026-05-06 07:58 54.81221 -3.46316 27622 ft 462 kts 157°
2026-05-06 07:58 54.78310 -3.43860 27913 ft 464 kts 157°
2026-05-06 07:58 54.75399 -3.41405 28197 ft 465 kts 157°
2026-05-06 07:58 54.72490 -3.38957 28461 ft 467 kts 157°
2026-05-06 07:59 54.69577 -3.36516 28698 ft 468 kts 157°
2026-05-06 07:59 54.66640 -3.34057 28976 ft 469 kts 157°
2026-05-06 07:59 54.63708 -3.31599 29325 ft 468 kts 157°
2026-05-06 07:59 54.60795 -3.29161 29676 ft 467 kts 158°
2026-05-06 08:00 54.57842 -3.26703 30020 ft 466 kts 158°
2026-05-06 08:00 54.54936 -3.24285 30350 ft 465 kts 158°
2026-05-06 08:00 54.52016 -3.21856 30649 ft 464 kts 158°
2026-05-06 08:00 54.49129 -3.19460 30940 ft 464 kts 158°
2026-05-06 08:01 54.46222 -3.17057 31207 ft 463 kts 158°
2026-05-06 08:01 54.43333 -3.14670 31461 ft 462 kts 158°
2026-05-06 08:01 54.40422 -3.12266 31766 ft 461 kts 158°
2026-05-06 08:01 54.37527 -3.09877 32063 ft 461 kts 158°
2026-05-06 08:02 54.34658 -3.07513 32359 ft 460 kts 158°
2026-05-06 08:02 54.31783 -3.05148 32670 ft 459 kts 158°
2026-05-06 08:02 54.28871 -3.02761 32965 ft 458 kts 158°
2026-05-06 08:02 54.26002 -3.00415 33262 ft 458 kts 158°
2026-05-06 08:03 54.23139 -2.98079 33548 ft 458 kts 158°
2026-05-06 08:03 54.20281 -2.95745 33797 ft 458 kts 158°
2026-05-06 08:03 54.17415 -2.93400 34081 ft 457 kts 158°
2026-05-06 08:03 54.14524 -2.91106 34334 ft 456 kts 159°
2026-05-06 08:04 54.11647 -2.88952 34561 ft 455 kts 160°
2026-05-06 08:04 54.08725 -2.86855 34783 ft 455 kts 161°
2026-05-06 08:04 54.05801 -2.84798 34996 ft 456 kts 161°
2026-05-06 08:04 54.02843 -2.82723 35077 ft 456 kts 161°
2026-05-06 08:05 53.96989 -2.78546 35084 ft 457 kts 160°
2026-05-06 08:05 53.91176 -2.74317 35082 ft 457 kts 160°
2026-05-06 08:06 53.85345 -2.70082 35081 ft 457 kts 160°
2026-05-06 08:06 53.79496 -2.65880 35076 ft 457 kts 160°
2026-05-06 08:07 53.73638 -2.61699 35077 ft 457 kts 160°
2026-05-06 08:07 53.67794 -2.57523 35061 ft 456 kts 160°
2026-05-06 08:08 53.61961 -2.53374 35071 ft 456 kts 160°
2026-05-06 08:08 53.56146 -2.49242 35077 ft 457 kts 160°
2026-05-06 08:09 53.50306 -2.45100 35076 ft 456 kts 160°
2026-05-06 08:09 53.44459 -2.40978 35076 ft 456 kts 160°
2026-05-06 08:10 53.38609 -2.36861 35088 ft 456 kts 160°
2026-05-06 08:10 53.32753 -2.32745 35089 ft 456 kts 160°
2026-05-06 08:11 53.26910 -2.28657 35087 ft 456 kts 160°
2026-05-06 08:11 53.21057 -2.24578 35072 ft 456 kts 160°
2026-05-06 08:12 53.15208 -2.20517 35069 ft 455 kts 160°
2026-05-06 08:12 53.09354 -2.16455 35062 ft 455 kts 160°
2026-05-06 08:13 53.03505 -2.12409 35059 ft 456 kts 160°
2026-05-06 08:13 52.97647 -2.08363 35038 ft 456 kts 160°
2026-05-06 08:14 52.91786 -2.04335 35043 ft 456 kts 160°
2026-05-06 08:14 52.85906 -2.00317 35042 ft 457 kts 160°
2026-05-06 08:15 52.80028 -1.96300 35051 ft 457 kts 160°
2026-05-06 08:15 52.74171 -1.92309 35037 ft 457 kts 160°
2026-05-06 08:16 52.68302 -1.88329 35056 ft 457 kts 160°
2026-05-06 08:16 52.62455 -1.84372 35053 ft 457 kts 160°
2026-05-06 08:17 52.56588 -1.80405 35058 ft 457 kts 160°
2026-05-06 08:17 52.50710 -1.76447 35056 ft 457 kts 160°
2026-05-06 08:18 52.44820 -1.72496 35057 ft 457 kts 160°
2026-05-06 08:18 52.38922 -1.68554 35065 ft 457 kts 160°
2026-05-06 08:19 52.33009 -1.64766 35059 ft 456 kts 162°
2026-05-06 08:19 52.26969 -1.61590 35001 ft 455 kts 165°
2026-05-06 08:20 52.20896 -1.58632 35002 ft 455 kts 165°
2026-05-06 08:20 52.14843 -1.55582 34999 ft 455 kts 164°
2026-05-06 08:21 52.08810 -1.52432 34999 ft 455 kts 164°
2026-05-06 08:21 52.02775 -1.49275 35022 ft 455 kts 163°
2026-05-06 08:22 51.96745 -1.46167 35011 ft 455 kts 164°
2026-05-06 08:22 51.90727 -1.42929 35016 ft 456 kts 161°
2026-05-06 08:23 51.84825 -1.39094 35019 ft 457 kts 159°
2026-05-06 08:23 51.79009 -1.35099 35018 ft 458 kts 159°
2026-05-06 08:24 51.76088 -1.33137 34860 ft 451 kts 159°
2026-05-06 08:24 51.73197 -1.31241 34299 ft 447 kts 159°
2026-05-06 08:24 51.70313 -1.29383 34011 ft 445 kts 159°
2026-05-06 08:24 51.67440 -1.27547 33876 ft 446 kts 160°
2026-05-06 08:25 51.64547 -1.25696 33731 ft 447 kts 160°
2026-05-06 08:25 51.61655 -1.23843 33607 ft 447 kts 159°
2026-05-06 08:25 51.58766 -1.21991 33451 ft 448 kts 160°
2026-05-06 08:25 51.55868 -1.20134 33319 ft 449 kts 159°
2026-05-06 08:26 51.52956 -1.18266 33200 ft 450 kts 159°
2026-05-06 08:26 51.50048 -1.16398 33040 ft 449 kts 159°
2026-05-06 08:26 51.47151 -1.14538 32908 ft 450 kts 160°
2026-05-06 08:26 51.44240 -1.12672 32770 ft 450 kts 159°
2026-05-06 08:27 51.41340 -1.10814 32632 ft 450 kts 159°
2026-05-06 08:27 51.38433 -1.08955 32497 ft 450 kts 159°
2026-05-06 08:27 51.35523 -1.07106 32362 ft 450 kts 160°
2026-05-06 08:27 51.32614 -1.05263 32208 ft 450 kts 159°
2026-05-06 08:28 51.27750 -1.02184 31988 ft 453 kts 159°
2026-05-06 08:28 51.24812 -1.00327 31857 ft 455 kts 159°
2026-05-06 08:28 51.21830 -0.98443 31724 ft 454 kts 159°
2026-05-06 08:29 51.18933 -0.96609 31597 ft 453 kts 159°
2026-05-06 08:29 51.15961 -0.94729 31462 ft 454 kts 160°
2026-05-06 08:29 51.13045 -0.92888 31341 ft 450 kts 159°
2026-05-06 08:29 51.10146 -0.91064 31213 ft 449 kts 159°
2026-05-06 08:30 51.07234 -0.89236 31082 ft 448 kts 160°
2026-05-06 08:30 51.04332 -0.87422 30961 ft 449 kts 161°
2026-05-06 08:30 51.01456 -0.85628 30831 ft 448 kts 160°
2026-05-06 08:30 50.98519 -0.83794 30705 ft 448 kts 160°
2026-05-06 08:31 50.95650 -0.81998 30578 ft 448 kts 160°
2026-05-06 08:31 50.92746 -0.80180 30449 ft 448 kts 160°
2026-05-06 08:31 50.89839 -0.78368 30324 ft 447 kts 160°
2026-05-06 08:31 50.86935 -0.76543 30195 ft 448 kts 158°
2026-05-06 08:32 50.84199 -0.74321 30067 ft 448 kts 150°
2026-05-06 08:32 50.81572 -0.71644 29926 ft 449 kts 149°
2026-05-06 08:32 50.78936 -0.68948 29777 ft 449 kts 149°
2026-05-06 08:32 50.76301 -0.66266 29629 ft 449 kts 149°
2026-05-06 08:33 50.73678 -0.63604 29492 ft 449 kts 149°
2026-05-06 08:33 50.71063 -0.60955 29333 ft 449 kts 149°
2026-05-06 08:33 50.68446 -0.58303 29201 ft 449 kts 149°
2026-05-06 08:33 50.65821 -0.55645 29062 ft 450 kts 149°
2026-05-06 08:34 50.63156 -0.52949 28898 ft 450 kts 149°
2026-05-06 08:34 50.57902 -0.47645 28629 ft 451 kts 149°
2026-05-06 08:34 50.55253 -0.44984 28486 ft 452 kts 149°
2026-05-06 08:35 50.52613 -0.42337 28358 ft 452 kts 149°
2026-05-06 08:35 50.49933 -0.39654 28219 ft 452 kts 149°
2026-05-06 08:35 50.47305 -0.37026 28078 ft 453 kts 149°
2026-05-06 08:35 50.44625 -0.34344 27939 ft 453 kts 149°
2026-05-06 08:36 50.41994 -0.31711 27798 ft 453 kts 149°
2026-05-06 08:36 50.39309 -0.29024 27662 ft 456 kts 149°
2026-05-06 08:36 50.36621 -0.26340 27527 ft 457 kts 149°
2026-05-06 08:36 50.33953 -0.23683 27394 ft 457 kts 149°
2026-05-06 08:37 50.31261 -0.21009 27258 ft 457 kts 149°
2026-05-06 08:37 50.28578 -0.18349 27105 ft 458 kts 149°
2026-05-06 08:37 50.25908 -0.15705 26947 ft 458 kts 149°
2026-05-06 08:37 50.23206 -0.13028 26986 ft 458 kts 149°
2026-05-06 08:38 50.20519 -0.10366 26980 ft 458 kts 149°
2026-05-06 08:38 50.17825 -0.07701 26975 ft 459 kts 149°
2026-05-06 08:38 50.15125 -0.05039 26982 ft 458 kts 148°
2026-05-06 08:38 50.12429 -0.02403 26982 ft 457 kts 150°
2026-05-06 08:39 50.09587 -0.00182 26983 ft 456 kts 158°
2026-05-06 08:39 50.06574 0.01350 26980 ft 457 kts 166°
2026-05-06 08:39 50.03489 0.02554 26981 ft 458 kts 166°
2026-05-06 08:39 50.00400 0.03768 26982 ft 457 kts 166°
2026-05-06 08:40 49.97309 0.04993 26985 ft 457 kts 166°
2026-05-06 08:40 49.94226 0.06208 26968 ft 458 kts 166°
2026-05-06 08:40 49.91130 0.07425 26961 ft 459 kts 166°
2026-05-06 08:40 49.88033 0.08635 26957 ft 459 kts 166°
2026-05-06 08:41 49.84975 0.09831 26950 ft 460 kts 166°
2026-05-06 08:41 49.81872 0.11045 26950 ft 460 kts 166°
2026-05-06 08:41 49.78768 0.12259 26946 ft 460 kts 166°
2026-05-06 08:41 49.75665 0.13474 26958 ft 460 kts 166°
2026-05-06 08:42 49.72558 0.14691 26960 ft 460 kts 166°
2026-05-06 08:42 49.69450 0.15905 26948 ft 461 kts 166°
2026-05-06 08:42 49.66338 0.17119 26955 ft 462 kts 165°
2026-05-06 08:42 49.63220 0.18358 26955 ft 462 kts 165°
2026-05-06 08:43 49.60109 0.19616 26961 ft 462 kts 165°
2026-05-06 08:43 49.57000 0.20880 26961 ft 463 kts 165°
2026-05-06 08:43 49.53891 0.22139 26971 ft 462 kts 165°
2026-05-06 08:43 49.50773 0.23393 26969 ft 462 kts 165°
2026-05-06 08:44 49.47653 0.24646 26962 ft 462 kts 165°
2026-05-06 08:44 49.44540 0.25899 26931 ft 463 kts 165°
2026-05-06 08:44 49.41432 0.27147 26926 ft 463 kts 165°
2026-05-06 08:44 49.38324 0.28388 26934 ft 463 kts 165°
2026-05-06 08:45 49.35218 0.29625 26937 ft 464 kts 165°
2026-05-06 08:45 49.32065 0.30876 26944 ft 463 kts 165°
2026-05-06 08:45 49.28963 0.32122 26939 ft 463 kts 164°
2026-05-06 08:45 49.25854 0.33433 26947 ft 463 kts 163°
2026-05-06 08:46 49.22738 0.34793 26940 ft 463 kts 163°
2026-05-06 08:46 49.19665 0.36150 26939 ft 463 kts 163°
2026-05-06 08:46 49.16580 0.37507 26941 ft 463 kts 163°
2026-05-06 08:46 49.13481 0.38851 26935 ft 462 kts 163°
2026-05-06 08:47 49.10397 0.40179 26934 ft 461 kts 163°
2026-05-06 08:47 49.07303 0.41493 26935 ft 461 kts 163°
2026-05-06 08:47 49.04203 0.42778 26932 ft 461 kts 164°
2026-05-06 08:47 49.01105 0.44041 26936 ft 461 kts 164°
2026-05-06 08:48 48.98004 0.45295 26935 ft 462 kts 164°
2026-05-06 08:48 48.94899 0.46550 26932 ft 462 kts 164°
2026-05-06 08:48 48.91795 0.47810 26877 ft 463 kts 164°
2026-05-06 08:48 48.88691 0.49077 26600 ft 460 kts 164°
2026-05-06 08:49 48.85612 0.50335 26058 ft 457 kts 164°
2026-05-06 08:49 48.82580 0.51573 25152 ft 442 kts 164°
2026-05-06 08:49 48.79644 0.52771 24314 ft 439 kts 164°
2026-05-06 08:49 48.76680 0.53979 23447 ft 440 kts 164°
2026-05-06 08:50 48.73740 0.55166 22518 ft 434 kts 165°
2026-05-06 08:50 48.70825 0.56340 21748 ft 434 kts 165°
2026-05-06 08:50 48.67913 0.57509 20955 ft 433 kts 165°
2026-05-06 08:50 48.65001 0.58672 20175 ft 430 kts 165°
2026-05-06 08:51 48.62116 0.59823 19415 ft 429 kts 165°
2026-05-06 08:51 48.59239 0.60973 18667 ft 427 kts 165°
2026-05-06 08:51 48.56372 0.62119 17897 ft 425 kts 165°
2026-05-06 08:51 48.53527 0.63253 17186 ft 422 kts 165°
2026-05-06 08:52 48.50769 0.64352 16524 ft 418 kts 165°
2026-05-06 08:52 48.47972 0.65466 15901 ft 413 kts 165°
2026-05-06 08:52 48.45205 0.66565 15278 ft 409 kts 165°
2026-05-06 08:52 48.42463 0.67651 14677 ft 405 kts 165°
2026-05-06 08:53 48.39751 0.68724 14080 ft 401 kts 165°
2026-05-06 08:53 48.37062 0.69790 13543 ft 396 kts 165°
2026-05-06 08:53 48.34457 0.70824 13395 ft 380 kts 165°
2026-05-06 08:53 48.31956 0.71816 13252 ft 364 kts 165°
2026-05-06 08:54 48.29544 0.72796 12960 ft 354 kts 162°
2026-05-06 08:54 48.27345 0.74297 12917 ft 347 kts 148°
2026-05-06 08:54 48.25443 0.76516 12925 ft 346 kts 134°
2026-05-06 08:54 48.23967 0.79284 12924 ft 346 kts 120°
2026-05-06 08:55 48.22901 0.82508 12929 ft 345 kts 112°
2026-05-06 08:55 48.21926 0.85785 12919 ft 345 kts 114°
2026-05-06 08:55 48.20947 0.89065 12923 ft 344 kts 114°
2026-05-06 08:55 48.19966 0.92338 12921 ft 344 kts 114°
2026-05-06 08:56 48.18983 0.95602 12922 ft 345 kts 114°
2026-05-06 08:56 48.17995 0.98882 12921 ft 345 kts 114°
2026-05-06 08:56 48.17010 1.02153 12925 ft 344 kts 114°
2026-05-06 08:56 48.16028 1.05411 12920 ft 343 kts 114°
2026-05-06 08:57 48.15044 1.08673 12918 ft 344 kts 114°
2026-05-06 08:57 48.14058 1.11936 12919 ft 344 kts 115°
2026-05-06 08:57 48.13066 1.15214 12919 ft 344 kts 114°
2026-05-06 08:57 48.12076 1.18481 12915 ft 344 kts 114°
2026-05-06 08:58 48.11091 1.21727 12919 ft 343 kts 115°
2026-05-06 08:58 48.10097 1.24989 12918 ft 344 kts 115°
2026-05-06 08:58 48.09104 1.28247 12919 ft 345 kts 115°
2026-05-06 08:58 48.08149 1.31554 12910 ft 347 kts 109°
2026-05-06 08:59 48.07785 1.35107 12910 ft 348 kts 88°
2026-05-06 08:59 48.08230 1.38642 12887 ft 347 kts 69°
2026-05-06 08:59 48.09407 1.41718 12599 ft 331 kts 47°
2026-05-06 08:59 48.11059 1.43920 12223 ft 311 kts 32°
2026-05-06 09:00 48.12816 1.45689 11843 ft 307 kts 31°
2026-05-06 09:00 48.14574 1.47454 11569 ft 302 kts 32°
2026-05-06 09:00 48.16310 1.49200 11379 ft 299 kts 32°
2026-05-06 09:00 48.18037 1.50937 11098 ft 298 kts 31°
2026-05-06 09:01 48.19747 1.52666 10792 ft 296 kts 32°
2026-05-06 09:01 48.21423 1.54365 10494 ft 294 kts 31°
2026-05-06 09:01 48.23113 1.56077 10183 ft 292 kts 32°
2026-05-06 09:01 48.24788 1.57776 9887 ft 290 kts 31°
2026-05-06 09:02 48.26450 1.59460 9607 ft 288 kts 31°
2026-05-06 09:02 48.28106 1.61138 9327 ft 286 kts 33°
2026-05-06 09:02 48.29750 1.62811 9045 ft 284 kts 32°
2026-05-06 09:02 48.31343 1.64434 8766 ft 282 kts 32°
2026-05-06 09:03 48.32958 1.66083 8538 ft 280 kts 33°
2026-05-06 09:03 48.34563 1.67723 8266 ft 278 kts 33°
2026-05-06 09:03 48.36156 1.69350 8000 ft 275 kts 33°
2026-05-06 09:03 48.37734 1.70965 7739 ft 274 kts 33°
2026-05-06 09:04 48.39307 1.72573 7479 ft 272 kts 32°
2026-05-06 09:04 48.40855 1.74155 7214 ft 266 kts 33°
2026-05-06 09:04 48.42382 1.75718 6958 ft 266 kts 33°
2026-05-06 09:04 48.43896 1.77267 6715 ft 263 kts 32°
2026-05-06 09:05 48.45392 1.78800 6467 ft 261 kts 33°
2026-05-06 09:05 48.46885 1.80330 6213 ft 259 kts 33°
2026-05-06 09:05 48.48365 1.81848 5959 ft 258 kts 33°
2026-05-06 09:05 48.49842 1.83367 5715 ft 256 kts 33°
2026-05-06 09:06 48.51314 1.84884 5472 ft 256 kts 33°
2026-05-06 09:06 48.52781 1.86399 5388 ft 256 kts 33°
2026-05-06 09:06 48.54243 1.87914 5286 ft 255 kts 33°
2026-05-06 09:06 48.55705 1.89427 5175 ft 254 kts 33°
2026-05-06 09:07 48.57145 1.90983 5048 ft 254 kts 40°
2026-05-06 09:07 48.58245 1.93071 4960 ft 257 kts 57°
2026-05-06 09:07 48.59078 1.95417 4827 ft 255 kts 60°
2026-05-06 09:07 48.59911 1.97821 4727 ft 256 kts 59°
2026-05-06 09:08 48.60753 2.00179 4582 ft 254 kts 58°
2026-05-06 09:08 48.61581 2.02480 4340 ft 250 kts 58°
2026-05-06 09:08 48.62392 2.04748 4150 ft 240 kts 58°
2026-05-06 09:08 48.63177 2.06940 4009 ft 230 kts 59°
2026-05-06 09:09 48.63919 2.09014 3745 ft 226 kts 58°
2026-05-06 09:09 48.64661 2.11087 3460 ft 222 kts 58°
2026-05-06 09:09 48.65374 2.13086 3163 ft 210 kts 58°
2026-05-06 09:09 48.66041 2.14957 2878 ft 193 kts 58°
2026-05-06 09:10 48.66640 2.16636 2659 ft 172 kts 58°
2026-05-06 09:10 48.67171 2.18128 2454 ft 151 kts 57°
2026-05-06 09:10 48.67640 2.19444 2235 ft 135 kts 56°
2026-05-06 09:10 48.68076 2.20656 2012 ft 128 kts 56°
2026-05-06 09:11 48.68504 2.21830 1762 ft 127 kts 57°
2026-05-06 09:11 48.68914 2.22998 1528 ft 125 kts 57°
2026-05-06 09:11 48.69314 2.24165 1372 ft 126 kts 58°
2026-05-06 09:11 48.69724 2.25323 1279 ft 123 kts 56°
2026-05-06 09:12 48.70137 2.26478 1068 ft 125 kts 57°
2026-05-06 09:12 48.70414 2.27242 998 ft 123 kts 56°
2026-05-06 09:12 48.70825 2.28405 826 ft 128 kts 57°
2026-05-06 09:12 48.71246 2.29589 695 ft 124 kts 58°
2026-05-06 09:13 48.71652 2.30732 516 ft 124 kts 58°
2026-05-06 09:13 48.72058 2.31882 357 ft 123 kts 56°
2026-05-06 09:13 48.72446 2.32949 296 ft 98 kts 62°
2026-05-06 09:13 48.72682 2.33624 298 ft 48 kts 63°
2026-05-06 09:14 48.72833 2.34041 297 ft 42 kts 60°
2026-05-06 09:14 48.72966 2.34418 295 ft 39 kts 63°
2026-05-06 09:14 48.73016 2.34806 296 ft 37 kts 82°
2026-05-06 09:14 48.73039 2.35133 295 ft 22 kts 97°
2026-05-06 09:15 48.73027 2.35374 297 ft 24 kts 68°
2026-05-06 09:15 48.73085 2.35519 296 ft 9 kts 58°
2026-05-06 09:15 48.73086 2.35605 295 ft 9 kts 126°
2026-05-06 09:15 48.73052 2.35677 296 ft 9 kts 126°
2026-05-06 09:16 48.73057 2.35711 294 ft 6 kts 34°
2026-05-06 09:16 48.73100 2.35748 295 ft 8 kts 50°
2026-05-06 09:16 48.73117 2.35830 293 ft 8 kts 102°
2026-05-06 09:16 48.73081 2.35887 294 ft 8 kts 132°
2026-05-06 09:17 48.73063 2.35917 294 ft 0 kts 133°